| time (UTC) | temp F | wind direction | speed MPH | gust MPH | rain 1hr in | rain 24hr in | rain mn in | humidity % | barometer mb |
| 20260904061534 | 69 | 248 | 12.0 | 20.0 | 0.00 | 0.00 | 0.00 | 96 | 1012.2 |
| 20260904060332 | 69 | 248 | 12.0 | 20.0 | 0.00 | 0.00 | 0.00 | 96 | 1012.2 |
| 20260904055131 | 69 | 248 | 9.0 | 13.0 | 0.00 | 0.00 | 0.00 | 96 | 1012.2 |
| 20260904053930 | 69 | 254 | 11.0 | 15.0 | 0.00 | 0.00 | 0.00 | 95 | 1012.2 |
| 20260904052729 | 69 | 248 | 14.0 | 21.0 | 0.00 | 0.00 | 0.00 | 95 | 1012.2 |
| 20260904051528 | 69 | 248 | 11.0 | 15.0 | 0.00 | 0.00 | 0.00 | 96 | 1012.2 |
| 20260904050326 | 69 | 258 | 11.0 | 13.0 | 0.00 | 0.00 | 0.00 | 96 | 1012.2 |
| 20260904045125 | 69 | 248 | 10.0 | 16.0 | 0.00 | 0.00 | 0.00 | 96 | 1012.2 |
| 20260904043924 | 69 | 255 | 12.0 | 20.0 | 0.00 | 0.00 | 0.00 | 97 | 1012.2 |
| 20260904042723 | 69 | 261 | 11.0 | 16.0 | 0.00 | 0.00 | 0.00 | 97 | 1012.2 |
| 20260904041522 | 69 | 261 | 8.0 | 13.0 | 0.00 | 0.00 | 0.00 | 97 | 1012.2 |
| 20260904040341 | 69 | 253 | 8.0 | 11.0 | 0.00 | 0.00 | 0.00 | 97 | 1012.2 |
| 20260904035119 | 69 | 252 | 12.0 | 17.0 | 0.00 | 0.00 | 0.00 | 97 | 1012.2 |
| 20260904033938 | 69 | 248 | 15.0 | 19.0 | 0.00 | 0.00 | 0.00 | 97 | 1012.2 |
| 20260904032737 | 69 | 248 | 10.0 | 16.0 | 0.00 | 0.00 | 0.00 | 97 | 1012.2 |
| 20260904031516 | 69 | 259 | 10.0 | 13.0 | 0.00 | 0.00 | 0.00 | 97 | 1012.2 |
| 20260904030315 | 69 | 248 | 8.0 | 14.0 | 0.00 | 0.00 | 0.00 | 97 | 1012.2 |
| 20260904025214 | 69 | 248 | 7.0 | 12.0 | 0.00 | 0.00 | 0.00 | 97 | 1012.2 |
| 20260904024013 | 69 | 248 | 10.0 | 15.0 | 0.00 | 0.00 | 0.00 | 96 | 1012.2 |
| 20260904022812 | 69 | 263 | 9.0 | 13.0 | 0.00 | 0.00 | 0.00 | 96 | 1012.2 |
| 20260904021611 | 69 | 252 | 9.0 | 11.0 | 0.00 | 0.00 | 0.00 | 96 | 1012.2 |
| 20260904020410 | 69 | 248 | 12.0 | 15.0 | 0.00 | 0.00 | 0.00 | 96 | 1012.2 |
| 20260904015208 | 69 | 248 | 13.0 | 16.0 | 0.00 | 0.00 | 0.00 | 96 | 1012.2 |
| 20260904014007 | 69 | 261 | 11.0 | 18.0 | 0.00 | 0.00 | 0.00 | 96 | 1015.6 |
| 20260904012806 | 70 | 264 | 12.0 | 16.0 | 0.00 | 0.00 | 0.00 | 97 | 1015.6 |
| 20260904011605 | 70 | 248 | 10.0 | 20.0 | 0.00 | 0.00 | 0.00 | 97 | 1015.6 |
| 20260904010424 | 70 | 248 | 9.0 | 12.0 | 0.00 | 0.00 | 0.00 | 97 | 1015.6 |
| 20260904005223 | 70 | 248 | 8.0 | 10.0 | 0.00 | 0.00 | 0.00 | 96 | 1015.6 |
| 20260904004002 | 70 | 248 | 10.0 | 14.0 | 0.00 | 0.00 | 0.00 | 96 | 1015.6 |
| 20260904002801 | 70 | 265 | 7.0 | 11.0 | 0.00 | 0.00 | 0.00 | 96 | 1015.6 |
| 20260904001600 | 70 | 259 | 8.0 | 13.0 | 0.00 | 0.00 | 0.00 | 96 | 1015.6 |
| 20260904000359 | 70 | 259 | 11.0 | 15.0 | 0.00 | 0.00 | 0.00 | 96 | 1015.6 |
| 20260903235158 | 70 | 248 | 11.0 | 15.0 | 0.00 | 0.00 | 0.00 | 96 | 1015.6 |
| 20260903233956 | 70 | 248 | 11.0 | 15.0 | 0.00 | 0.00 | 0.00 | 96 | 1015.6 |
| 20260903232755 | 70 | 265 | 12.0 | 15.0 | 0.00 | 0.00 | 0.00 | 96 | 1015.6 |
| 20260903231614 | 70 | 248 | 9.0 | 11.0 | 0.00 | 0.00 | 0.00 | 96 | 1015.6 |
| 20260903230433 | 70 | 248 | 11.0 | 15.0 | 0.00 | 0.00 | 0.00 | 96 | 1015.6 |
| 20260903225153 | 70 | 248 | 9.0 | 11.0 | 0.00 | 0.00 | 0.00 | 96 | 1015.6 |
| 20260903223951 | 70 | 248 | 8.0 | 15.0 | 0.00 | 0.00 | 0.00 | 96 | 1015.6 |
| 20260903222750 | 70 | 264 | 7.0 | 10.0 | 0.00 | 0.00 | 0.00 | 96 | 1015.6 |
| 20260903221549 | 70 | 248 | 9.0 | 15.0 | 0.00 | 0.00 | 0.00 | 96 | 1015.6 |
| 20260903220348 | 70 | 248 | 8.0 | 11.0 | 0.00 | 0.00 | 0.00 | 96 | 1015.6 |
| 20260903215143 | 70 | 248 | 9.0 | 11.0 | 0.00 | 0.00 | 0.00 | 95 | 1015.6 |
| 20260903213922 | 70 | 248 | 5.0 | 11.0 | 0.00 | 0.00 | 0.00 | 95 | 1015.6 |
| 20260903212721 | 70 | 248 | 10.0 | 13.0 | 0.00 | 0.00 | 0.00 | 95 | 1015.6 |
| 20260903211520 | 70 | 248 | 11.0 | 16.0 | 0.00 | 0.00 | 0.00 | 95 | 1015.6 |
| 20260903210339 | 71 | 248 | 10.0 | 17.0 | 0.00 | 0.00 | 0.00 | 95 | 1015.6 |
| 20260903205138 | 71 | 248 | 9.0 | 13.0 | 0.00 | 0.00 | 0.00 | 95 | 1015.6 |
| 20260903203917 | 71 | 248 | 10.0 | 16.0 | 0.00 | 0.00 | 0.00 | 95 | 1015.6 |
| 20260903202716 | 71 | 265 | 10.0 | 12.0 | 0.00 | 0.00 | 0.00 | 95 | 1015.6 |
| 20260903201654 | 71 | 248 | 14.0 | 18.0 | 0.00 | 0.00 | 0.00 | 95 | 1015.6 |
| 20260903200413 | 70 | 248 | 7.0 | 12.0 | 0.00 | 0.00 | 0.00 | 95 | 1015.6 |
| 20260903195212 | 70 | 248 | 10.0 | 11.0 | 0.00 | 0.00 | 0.00 | 95 | 1015.6 |
| 20260903194011 | 70 | 248 | 8.0 | 10.0 | 0.00 | 0.00 | 0.00 | 95 | 1015.6 |
| 20260903192810 | 70 | 248 | 7.0 | 9.0 | 0.00 | 0.00 | 0.00 | 95 | 1015.6 |
| 20260903191608 | 70 | 248 | 5.0 | 7.0 | 0.00 | 0.00 | 0.00 | 94 | 1015.6 |
| 20260903190428 | 71 | 253 | 6.0 | 8.0 | 0.00 | 0.00 | 0.00 | 93 | 1015.6 |
| 20260903185207 | 71 | 248 | 8.0 | 10.0 | 0.00 | 0.00 | 0.00 | 92 | 1015.6 |
| 20260903184006 | 72 | 265 | 10.0 | 12.0 | 0.00 | 0.00 | 0.00 | 90 | 1015.6 |
| 20260903182805 | 72 | 254 | 5.0 | 7.0 | 0.00 | 0.00 | 0.00 | 89 | 1015.6 |
| 20260903181604 | 73 | 270 | 6.0 | 16.0 | 0.00 | 0.00 | 0.00 | 88 | 1015.6 |
| 20260903180401 | 73 | 270 | 10.0 | 13.0 | 0.00 | 0.00 | 0.00 | 87 | 1015.6 |
| 20260903175201 | 73 | 260 | 9.0 | 17.0 | 0.00 | 0.00 | 0.00 | 87 | 1015.6 |
| 20260903173959 | 73 | 252 | 7.0 | 9.0 | 0.00 | 0.00 | 0.00 | 87 | 1015.6 |
| 20260903172759 | 73 | 254 | 5.0 | 6.0 | 0.00 | 0.00 | 0.00 | 86 | 1015.6 |
| 20260903171557 | 74 | 252 | 4.0 | 8.0 | 0.00 | 0.00 | 0.00 | 86 | 1015.6 |
| 20260903170416 | 74 | 260 | 6.0 | 12.0 | 0.00 | 0.00 | 0.00 | 85 | 1015.6 |
| 20260903165155 | 74 | 270 | 7.0 | 11.0 | 0.00 | 0.00 | 0.00 | 85 | 1015.6 |
| 20260903163953 | 74 | 270 | 5.0 | 9.0 | 0.00 | 0.00 | 0.00 | 84 | 1015.6 |
| 20260903162753 | 74 | 254 | 9.0 | 20.0 | 0.00 | 0.00 | 0.00 | 84 | 1015.6 |
| 20260903161551 | 75 | 270 | 7.0 | 9.0 | 0.00 | 0.00 | 0.00 | 83 | 1015.6 |
| 20260903160350 | 75 | 270 | 9.0 | 13.0 | 0.00 | 0.00 | 0.00 | 83 | 1015.6 |
| 20260903155149 | 75 | 293 | 8.0 | 14.0 | 0.00 | 0.00 | 0.00 | 82 | 1015.6 |
| 20260903154008 | 75 | 281 | 15.0 | 20.0 | 0.00 | 0.00 | 0.00 | 82 | 1015.6 |
| 20260903152807 | 75 | 286 | 11.0 | 15.0 | 0.00 | 0.00 | 0.00 | 82 | 1015.6 |
| 20260903151547 | 75 | 270 | 12.0 | 13.0 | 0.00 | 0.00 | 0.00 | 81 | 1015.6 |
| 20260903150345 | 75 | 293 | 11.0 | 15.0 | 0.00 | 0.00 | 0.00 | 80 | 1015.6 |
| 20260903145144 | 76 | 270 | 15.0 | 23.0 | 0.00 | 0.00 | 0.00 | 80 | 1015.6 |
| 20260903143943 | 76 | 270 | 7.0 | 12.0 | 0.00 | 0.00 | 0.00 | 81 | 1015.6 |
| 20260903142741 | 76 | 270 | 12.0 | 16.0 | 0.00 | 0.00 | 0.00 | 80 | 1015.6 |
| 20260903141540 | 75 | 270 | 11.0 | 15.0 | 0.00 | 0.00 | 0.00 | 81 | 1015.6 |
| 20260903140419 | 75 | 277 | 10.0 | 18.0 | 0.00 | 0.00 | 0.00 | 80 | 1015.6 |
| 20260903135138 | 75 | 270 | 11.0 | 17.0 | 0.00 | 0.00 | 0.00 | 81 | 1015.6 |
| 20260903133937 | 76 | 281 | 12.0 | 20.0 | 0.00 | 0.00 | 0.00 | 81 | 1015.6 |
| 20260903132735 | 76 | 270 | 10.0 | 14.0 | 0.00 | 0.00 | 0.00 | 80 | 1015.6 |
| 20260903131535 | 77 | 270 | 10.0 | 13.0 | 0.00 | 0.00 | 0.00 | 82 | 1015.6 |
| 20260903130333 | 74 | 270 | 13.0 | 19.0 | 0.00 | 0.00 | 0.00 | 84 | 1015.6 |
| 20260903125132 | 74 | 274 | 14.0 | 18.0 | 0.00 | 0.00 | 0.00 | 85 | 1015.6 |
| 20260903123932 | 73 | 270 | 12.0 | 15.0 | 0.00 | 0.00 | 0.00 | 85 | 1015.6 |
| 20260903122731 | 73 | 270 | 12.0 | 18.0 | 0.00 | 0.00 | 0.00 | 88 | 1015.6 |
| 20260903121528 | 73 | 270 | 13.0 | 20.0 | 0.00 | 0.00 | 0.00 | 88 | 1015.6 |
| 20260903120328 | 73 | 256 | 8.0 | 13.0 | 0.00 | 0.00 | 0.00 | 88 | 1015.6 |
| 20260903115127 | 73 | 257 | 12.0 | 15.0 | 0.00 | 0.00 | 0.00 | 88 | 1015.6 |
| 20260903113926 | 73 | 277 | 9.0 | 13.0 | 0.00 | 0.00 | 0.00 | 89 | 1015.6 |
| 20260903112745 | 74 | 288 | 8.0 | 10.0 | 0.00 | 0.00 | 0.00 | 90 | 1015.6 |
| 20260903111524 | 73 | 275 | 7.0 | 9.0 | 0.00 | 0.00 | 0.00 | 92 | 1015.6 |
| 20260903110342 | 71 | 284 | 12.0 | 15.0 | 0.00 | 0.00 | 0.00 | 96 | 1015.6 |
| 20260903105121 | 70 | 257 | 9.0 | 13.0 | 0.00 | 0.00 | 0.00 | 96 | 1015.6 |
| 20260903103920 | 69 | 270 | 10.0 | 15.0 | 0.00 | 0.00 | 0.00 | 97 | 1015.6 |
| 20260903102759 | 69 | 293 | 9.0 | 13.0 | 0.00 | 0.00 | 0.00 | 97 | 1015.6 |
| 20260903101518 | 69 | 251 | 9.0 | 12.0 | 0.00 | 0.00 | 0.00 | 98 | 1015.6 |
| 20260903100317 | 69 | 265 | 9.0 | 14.0 | 0.00 | 0.00 | 0.00 | 98 | 1015.6 |
| 20260903095115 | 69 | 270 | 12.0 | 16.0 | 0.00 | 0.00 | 0.00 | 97 | 1015.6 |
| 20260903094014 | 68 | 270 | 8.0 | 11.0 | 0.00 | 0.00 | 0.00 | 97 | 1015.6 |
| 20260903092813 | 68 | 248 | 7.0 | 9.0 | 0.00 | 0.00 | 0.00 | 96 | 1015.6 |
| 20260903091612 | 68 | 270 | 10.0 | 14.0 | 0.00 | 0.00 | 0.00 | 96 | 1015.6 |
| 20260903090411 | 68 | 264 | 6.0 | 8.0 | 0.00 | 0.00 | 0.00 | 96 | 1015.6 |
| 20260903085310 | 68 | 248 | 10.0 | 15.0 | 0.00 | 0.00 | 0.00 | 96 | 1015.6 |
| 20260903084009 | 68 | 264 | 7.0 | 9.0 | 0.00 | 0.00 | 0.00 | 96 | 1015.6 |
| 20260903082827 | 68 | 274 | 11.0 | 18.0 | 0.00 | 0.00 | 0.00 | 96 | 1015.6 |
| 20260903081606 | 67 | 265 | 12.0 | 18.0 | 0.00 | 0.00 | 0.00 | 96 | 1015.6 |
| 20260903080405 | 67 | 270 | 7.0 | 10.0 | 0.00 | 0.00 | 0.00 | 96 | 1015.6 |
| 20260903075204 | 67 | 270 | 5.0 | 7.0 | 0.00 | 0.00 | 0.00 | 96 | 1015.6 |
| 20260903074003 | 67 | 265 | 10.0 | 15.0 | 0.00 | 0.00 | 0.00 | 96 | 1015.6 |
| 20260903072802 | 67 | 260 | 10.0 | 13.0 | 0.00 | 0.00 | 0.00 | 96 | 1015.6 |
| 20260903071600 | 67 | 258 | 8.0 | 13.0 | 0.00 | 0.00 | 0.00 | 95 | 1015.6 |
| 20260903070439 | 67 | 270 | 10.0 | 15.0 | 0.00 | 0.00 | 0.00 | 95 | 1015.6 |
| 20260903065158 | 66 | 260 | 7.0 | 10.0 | 0.00 | 0.00 | 0.00 | 95 | 1015.6 |
| 20260903063957 | 66 | 264 | 11.0 | 13.0 | 0.00 | 0.00 | 0.00 | 95 | 1015.6 |
| 20260903062756 | 66 | 248 | 7.0 | 13.0 | 0.00 | 0.00 | 0.00 | 94 | 1015.6 |